RYR93SK EIKN-EGBB

Flight info

Callsign RYR93SK
Flight time N/A
Altitude 33000
Route CON DCT OLAPO DCT BOFUM Q37 MALUD
Aircraft B38M/M-SDE1FGHILORVWXY/HB1

Departure

Time 2026-05-06 19:41
Airport Ireland West Airport Knock (EIKN)

Arrival

Time N/A
Airport Birmingham Airport (EGBB)
Time Latitude Longitude Altitude Speed Heading
2026-05-06 19:14 53.91344 -8.81004 649 ft 0 kts 259°
2026-05-06 19:34 53.91344 -8.80999 653 ft 3 kts 258°
2026-05-06 19:34 53.91353 -8.80958 652 ft 4 kts 236°
2026-05-06 19:34 53.91371 -8.80932 653 ft 4 kts 187°
2026-05-06 19:35 53.91380 -8.80932 652 ft 2 kts 172°
2026-05-06 19:38 53.91379 -8.80932 650 ft 1 kts 172°
2026-05-06 19:38 53.91360 -8.80927 653 ft 6 kts 172°
2026-05-06 19:38 53.91281 -8.80905 652 ft 16 kts 169°
2026-05-06 19:38 53.91181 -8.80868 652 ft 8 kts 165°
2026-05-06 19:39 53.91153 -8.80800 655 ft 8 kts 82°
2026-05-06 19:39 53.91167 -8.80691 655 ft 11 kts 78°
2026-05-06 19:39 53.91184 -8.80549 654 ft 14 kts 78°
2026-05-06 19:39 53.91205 -8.80378 655 ft 16 kts 78°
2026-05-06 19:40 53.91230 -8.80184 652 ft 15 kts 71°
2026-05-06 19:40 53.91280 -8.80034 652 ft 11 kts 80°
2026-05-06 19:40 53.91248 -8.79991 652 ft 6 kts 226°
2026-05-06 19:40 53.91236 -8.80077 653 ft 11 kts 258°
2026-05-06 19:41 53.91194 -8.80431 654 ft 67 kts 259°
2026-05-06 19:41 53.91051 -8.81656 650 ft 142 kts 259°
2026-05-06 19:41 53.90843 -8.83519 1079 ft 170 kts 260°
2026-05-06 19:41 53.90631 -8.85528 2007 ft 175 kts 261°
2026-05-06 19:42 53.90440 -8.87545 2943 ft 172 kts 262°
2026-05-06 19:42 53.90210 -8.89608 3563 ft 187 kts 257°
2026-05-06 19:42 53.89908 -8.91926 3986 ft 215 kts 257°
2026-05-06 19:42 53.89583 -8.94522 4586 ft 235 kts 257°
2026-05-06 19:43 53.89176 -8.97302 5220 ft 251 kts 244°
2026-05-06 19:43 53.88101 -8.99557 6261 ft 246 kts 214°
2026-05-06 19:43 53.86524 -9.00656 7169 ft 251 kts 189°
2026-05-06 19:43 53.84763 -9.00515 8001 ft 258 kts 171°
2026-05-06 19:44 53.82971 -8.99954 8750 ft 268 kts 170°
2026-05-06 19:44 53.81221 -8.98675 9378 ft 285 kts 141°
2026-05-06 19:44 53.80067 -8.95944 10206 ft 293 kts 113°
2026-05-06 19:44 53.79643 -8.92487 10708 ft 311 kts 91°
2026-05-06 19:45 53.79671 -8.88748 11264 ft 324 kts 90°
2026-05-06 19:45 53.79667 -8.84865 11906 ft 334 kts 91°
2026-05-06 19:45 53.79654 -8.80922 12740 ft 338 kts 91°
2026-05-06 19:45 53.79637 -8.76916 13551 ft 343 kts 91°
2026-05-06 19:46 53.79616 -8.72856 14293 ft 347 kts 91°
2026-05-06 19:46 53.79593 -8.68746 15038 ft 351 kts 91°
2026-05-06 19:46 53.79570 -8.64652 15780 ft 354 kts 90°
2026-05-06 19:46 53.79544 -8.60460 16503 ft 359 kts 90°
2026-05-06 19:47 53.79516 -8.56215 17236 ft 362 kts 90°
2026-05-06 19:47 53.79487 -8.51936 17941 ft 366 kts 90°
2026-05-06 19:47 53.79455 -8.47605 18580 ft 370 kts 90°
2026-05-06 19:47 53.79422 -8.43230 19167 ft 374 kts 90°
2026-05-06 19:48 53.79387 -8.38821 19750 ft 377 kts 90°
2026-05-06 19:48 53.79350 -8.34360 20319 ft 381 kts 90°
2026-05-06 19:48 53.79312 -8.29866 20877 ft 384 kts 90°
2026-05-06 19:48 53.79271 -8.25323 21433 ft 388 kts 90°
2026-05-06 19:49 53.79229 -8.20743 21996 ft 391 kts 90°
2026-05-06 19:49 53.79184 -8.16122 22542 ft 395 kts 90°
2026-05-06 19:49 53.79137 -8.11462 23093 ft 398 kts 90°
2026-05-06 19:49 53.79088 -8.06761 23617 ft 402 kts 90°
2026-05-06 19:50 53.79035 -8.02020 24114 ft 404 kts 90°
2026-05-06 19:50 53.78982 -7.97255 24614 ft 406 kts 90°
2026-05-06 19:50 53.78927 -7.92473 25119 ft 408 kts 90°
2026-05-06 19:50 53.78870 -7.87670 25609 ft 410 kts 90°
2026-05-06 19:51 53.78810 -7.82839 26093 ft 412 kts 90°
2026-05-06 19:51 53.78755 -7.78477 26527 ft 414 kts 90°
2026-05-06 19:51 53.78691 -7.73598 26995 ft 416 kts 90°
2026-05-06 19:51 53.78625 -7.68714 27461 ft 418 kts 89°
2026-05-06 19:52 53.78557 -7.63772 27913 ft 420 kts 90°
2026-05-06 19:52 53.78487 -7.58830 28370 ft 422 kts 89°
2026-05-06 19:52 53.78415 -7.53914 28787 ft 424 kts 89°
2026-05-06 19:52 53.78340 -7.48912 29219 ft 426 kts 89°
2026-05-06 19:53 53.78262 -7.43891 29651 ft 428 kts 89°
2026-05-06 19:53 53.78182 -7.38846 30048 ft 431 kts 89°
2026-05-06 19:53 53.78100 -7.33774 30401 ft 432 kts 89°
2026-05-06 19:53 53.78099 -7.28692 30739 ft 432 kts 84°
2026-05-06 19:54 53.78138 -7.23600 31135 ft 435 kts 95°
2026-05-06 19:54 53.77376 -7.18655 31613 ft 437 kts 109°
2026-05-06 19:54 53.76330 -7.13857 32000 ft 435 kts 103°
2026-05-06 19:54 53.75541 -7.08916 32407 ft 434 kts 101°
2026-05-06 19:55 53.74825 -7.03974 32832 ft 433 kts 100°
2026-05-06 19:55 53.74143 -6.99022 32985 ft 434 kts 99°
2026-05-06 19:55 53.72827 -6.89132 32964 ft 429 kts 99°
2026-05-06 19:56 53.71531 -6.79293 32957 ft 429 kts 99°
2026-05-06 19:56 53.70232 -6.69464 32964 ft 429 kts 99°
2026-05-06 19:57 53.68934 -6.59719 32963 ft 428 kts 99°
2026-05-06 19:57 53.67620 -6.49911 32959 ft 428 kts 99°
2026-05-06 19:58 53.66298 -6.40118 32967 ft 428 kts 99°
2026-05-06 19:58 53.64969 -6.30335 32974 ft 428 kts 99°
2026-05-06 19:59 53.63631 -6.20550 32970 ft 428 kts 99°
2026-05-06 19:59 53.62289 -6.10796 32970 ft 428 kts 99°
2026-05-06 20:00 53.60937 -6.01038 32969 ft 427 kts 99°
2026-05-06 20:00 53.59579 -5.91299 32978 ft 428 kts 99°
2026-05-06 20:01 53.58211 -5.81554 32980 ft 427 kts 99°
2026-05-06 20:01 53.56836 -5.71820 32991 ft 427 kts 99°
2026-05-06 20:02 53.55457 -5.62107 32993 ft 427 kts 99°
2026-05-06 20:02 53.54072 -5.52397 32991 ft 427 kts 99°
2026-05-06 20:03 53.53643 -5.47507 32983 ft 419 kts 87°
2026-05-06 20:03 53.53559 -5.42596 32991 ft 421 kts 88°
2026-05-06 20:03 53.53308 -5.32834 32992 ft 421 kts 88°
2026-05-06 20:04 53.53057 -5.23000 32995 ft 421 kts 88°
2026-05-06 20:04 53.52782 -5.13165 32993 ft 421 kts 88°
2026-05-06 20:05 53.52477 -5.03354 33000 ft 421 kts 89°
2026-05-06 20:05 53.52166 -4.93528 33008 ft 421 kts 89°
2026-05-06 20:06 53.51848 -4.83706 33005 ft 421 kts 89°
2026-05-06 20:06 53.51521 -4.73884 33002 ft 421 kts 89°
2026-05-06 20:07 53.51186 -4.64062 33007 ft 421 kts 89°
2026-05-06 20:07 53.50844 -4.54248 33011 ft 421 kts 89°
2026-05-06 20:08 53.50495 -4.44484 33008 ft 421 kts 89°
2026-05-06 20:08 53.50144 -4.34876 33007 ft 421 kts 89°
2026-05-06 20:09 53.49781 -4.25171 33016 ft 404 kts 89°
2026-05-06 20:09 53.49425 -4.15850 32783 ft 395 kts 89°
2026-05-06 20:10 53.49245 -4.11208 31945 ft 403 kts 90°
2026-05-06 20:10 53.49060 -4.06474 31167 ft 409 kts 90°
2026-05-06 20:10 53.48872 -4.01717 30706 ft 406 kts 91°
2026-05-06 20:10 53.48660 -3.97016 30320 ft 403 kts 95°
2026-05-06 20:11 53.47902 -3.92475 29781 ft 405 kts 109°
2026-05-06 20:11 53.46961 -3.88050 29350 ft 400 kts 107°
2026-05-06 20:11 53.46069 -3.83644 28933 ft 396 kts 107°
2026-05-06 20:11 53.45187 -3.79353 28515 ft 393 kts 107°
2026-05-06 20:12 53.44296 -3.75045 28108 ft 389 kts 107°
2026-05-06 20:12 53.43397 -3.70719 27695 ft 386 kts 108°